Location: Cherry Springs State Park
(41.6616°N, 77.8240°W)
Time: 12:00:15
(UTC-04:00)

Amateur Radio Satellites - All Passes

Search period start: 25 October 2014 11:30
Search period end: 26 October 2014 11:30
Location: Cherry Springs State Park, 41.6616°N, 77.8240°W

Satellite Date Start Highest point End Downlink Frequencies (MHz)
Time Altitude Azimuth
FUNcube-1 25 Oct 11:49:23 11:53:38 67° 285° (WNW) 11:57:46 145.950 - 145.970 MHz USB
Oscar 11 25 Oct 11:50:38 11:54:19 28° 291° (WNW) 11:58:00 145.825 FM, Beacon 2401.500 USB
ISS 25 Oct 12:22:18 12:25:04 24° 135° (SE) 12:27:50 145.800 FM
Sapphire 25 Oct 12:30:32 12:35:20 31° 50° (NE) 12:40:05 437.095 MHz 1200 baud AX-25 AFSK
Oscar 19 25 Oct 12:34:54 12:38:08 17° 61° (ENE) 12:41:22 437.125 CW, 437.150 USB
JAS-1B 25 Oct 12:41:32 12:45:27 19° 61° (ENE) 12:49:18 435.800 - 435.900 CW/SSB
ZACube-1 25 Oct 12:42:01 12:45:01 19° 294° (WNW) 12:47:58 437.345 MHz
Oscar 10/S400 25 Oct 12:44:15 13:01:53 27° 150° (SSE) 13:17:39 145.825 - 145.975 CW/USB, Beacon 145.810 USB
PCSat 25 Oct 12:52:47 12:58:03 47° 55° (NE) 13:03:15 145.825 MHz
SO-50 25 Oct 12:54:40 12:58:54 43° 117° (ESE) 13:03:16 436.795 FM
AO-27 25 Oct 12:55:56 12:57:33 11° 57° (ENE) 12:59:11 436.795 MHz FM
KITSAT 1 25 Oct 12:56:04 13:04:10 89° 300° (WNW) 13:12:18 435.175 FM
AO-Echo 25 Oct 13:10:57 13:14:16 18° 62° (ENE) 13:17:39 ?
Oscar 16 25 Oct 13:18:47 13:23:38 43° 70° (ENE) 13:28:29 437.025 USB, Beacon 2401.1428
Uribyol 2 25 Oct 13:39:54 13:44:23 30° 66° (ENE) 13:48:53 436.500 FM
ITAMSAT 1 25 Oct 13:46:00 13:50:33 32° 67° (ENE) 13:55:08 435.822 SSB
ISS 25 Oct 13:58:25 14:01:36 42° 331° (NNW) 14:04:49 145.800 FM
Gurwin Techsat 1B 25 Oct 14:09:39 14:14:05 28° 66° (ENE) 14:18:33 435.225 FM
Oscar 19 25 Oct 14:11:50 14:16:57 64° 258° (WSW) 14:22:04 437.125 CW, 437.150 USB
Sapphire 25 Oct 14:13:46 14:18:52 42° 248° (WSW) 14:23:55 437.095 MHz 1200 baud AX-25 AFSK
UOSAT-12 25 Oct 14:15:30 14:19:23 27° 113° (ESE) 14:23:20 437.025 FM, 437.400 FM
TMSAT-1 25 Oct 14:20:36 14:24:56 26° 65° (ENE) 14:29:16 436.925 FM
AO-7 25 Oct 14:28:47 14:33:58 19° 49° (NE) 14:39:08 29.400 - 29.500 MHz
JAS-1B 25 Oct 14:29:49 14:35:43 59° 258° (WSW) 14:41:19 435.800 - 435.900 CW/SSB
AO-27 25 Oct 14:31:00 14:36:12 82° 75° (ENE) 14:41:28 436.795 MHz FM
SO-50 25 Oct 14:35:52 14:39:38 25° 316° (NW) 14:43:29 436.795 FM
PCSat 25 Oct 14:36:48 14:41:09 25° 252° (WSW) 14:45:29 145.825 MHz
AO-Echo 25 Oct 14:47:45 14:52:32 56° 260° (W) 14:57:32 ?
KITSAT 1 25 Oct 14:54:11 15:00:41 26° 323° (NW) 15:07:12 435.175 FM
Oscar 16 25 Oct 14:59:04 15:03:08 23° 266° (W) 15:07:13 437.025 USB, Beacon 2401.1428
Uribyol 2 25 Oct 15:18:59 15:23:44 35° 263° (W) 15:28:31 436.500 FM
ITAMSAT 1 25 Oct 15:25:19 15:29:58 33° 263° (W) 15:34:40 435.822 SSB
ISS 25 Oct 15:36:45 15:38:57 16° 351° (N) 15:41:09 145.800 FM
Saudisat 1A 25 Oct 15:39:16 15:42:54 24° 45° (NE) 15:46:30 436.775 MHz
Gurwin Techsat 1B 25 Oct 15:48:58 15:53:53 38° 263° (W) 15:58:50 435.225 FM
UOSAT-12 25 Oct 15:55:02 15:59:22 38° 311° (NW) 16:03:47 437.025 FM, 437.400 FM
TMSAT-1 25 Oct 15:59:39 16:04:37 41° 262° (W) 16:09:38 436.925 FM
AO-27 25 Oct 16:14:29 16:16:20 12° 271° (W) 16:18:13 436.795 MHz FM
AO-7 25 Oct 16:17:12 16:25:26 77° 69° (ENE) 16:33:43 29.400 - 29.500 MHz
Uosat F 25 Oct 16:33:02 16:38:00 66° 73° (ENE) 16:43:01 435.120 FM
AO-40 25 Oct 16:38:19 23:19:31 41° 184° (S) 05:03:01 Beacon 2401.320
KITSAT 1 25 Oct 16:57:02 16:59:37 12° 352° (N) 17:02:13 435.175 FM
JAS-2 25 Oct 17:07:29 17:13:01 39° 65° (ENE) 17:19:14 435.800 - 435.900 CW/SSB, 435.910 FM
ISS 25 Oct 17:14:18 17:16:37 17° 11° (NNE) 17:18:55 145.800 FM
Hamsat 25 Oct 17:16:22 17:19:32 21° 67° (ENE) 17:22:42 145.90 MHz
Saudisat 1A 25 Oct 17:18:26 17:22:38 42° 243° (WSW) 17:26:47 436.775 MHz
AO-7 25 Oct 18:12:50 18:18:58 23° 267° (W) 18:25:10 29.400 - 29.500 MHz
Uosat F 25 Oct 18:14:34 18:17:15 14° 269° (W) 18:19:56 435.120 FM
OPAL 25 Oct 18:17:14 18:22:05 51° 102° (ESE) 18:26:53 ?
ISS 25 Oct 18:50:36 18:53:53 51° 31° (NNE) 18:57:09 145.800 FM
Hamsat 25 Oct 18:51:30 18:55:17 33° 263° (W) 18:59:05 145.90 MHz
JAS-2 25 Oct 18:52:46 18:58:08 35° 267° (W) 19:04:09 435.800 - 435.900 CW/SSB, 435.910 FM
KITSAT 1 25 Oct 18:54:36 18:59:18 16° 24° (NNE) 19:03:58 435.175 FM
SO-67 25 Oct 19:29:42 19:33:08 89° 78° (ENE) 19:36:36 435.3500 MHz FM
OPAL 25 Oct 19:57:03 20:00:35 20° 299° (WNW) 20:04:07 ?
HO-68 25 Oct 19:58:41 20:04:31 28° 59° (ENE) 20:10:23 435.675 MHz FM
STRAND 1 25 Oct 20:02:53 20:08:03 72° 103° (ESE) 20:13:10 ?
ISS 25 Oct 20:27:51 20:30:19 19° 227° (SW) 20:32:47 145.800 FM
KITSAT 1 25 Oct 20:49:15 20:57:01 48° 50° (NE) 21:04:44 435.175 FM
RS-15 25 Oct 21:05:15 21:13:39 26° 103° (ESE) 21:21:57 29.354 - 29.394 USB, Beacon 29.352 USB
Oscar 11 25 Oct 21:10:12 21:13:30 22° 67° (ENE) 21:16:48 145.825 FM, Beacon 2401.500 USB
FUNcube-1 25 Oct 21:13:03 21:14:07 11° 61° (ENE) 21:15:10 145.950 - 145.970 MHz USB
SO-50 25 Oct 21:25:44 21:30:23 44° 51° (NE) 21:35:04 436.795 FM
STRAND 1 25 Oct 21:43:41 21:46:37 16° 300° (WNW) 21:49:33 ?
HO-68 25 Oct 21:44:41 21:51:44 61° 258° (WSW) 21:58:51 435.675 MHz FM
ZACube-1 25 Oct 22:01:18 22:05:24 34° 70° (ENE) 22:09:28 437.345 MHz
UKube-1 25 Oct 22:04:18 22:08:39 86° 256° (WSW) 22:13:03 145.840 MHz, 145.915 MHz
UOSAT-12 25 Oct 22:44:25 22:48:30 28° 46° (NE) 22:52:32 437.025 FM, 437.400 FM
KITSAT 1 25 Oct 22:44:52 22:52:20 43° 250° (WSW) 22:59:46 435.175 FM
FUNcube-1 25 Oct 22:45:14 22:49:49 85° 257° (WSW) 22:54:22 145.950 - 145.970 MHz USB
Oscar 11 25 Oct 22:45:32 22:49:28 34° 263° (W) 22:53:26 145.825 FM, Beacon 2401.500 USB
SO-50 25 Oct 23:06:49 23:10:43 24° 248° (WSW) 23:14:37 436.795 FM
RS-15 25 Oct 23:13:40 23:24:42 82° 304° (WNW) 23:35:42 29.354 - 29.394 USB, Beacon 29.352 USB
ZACube-1 25 Oct 23:38:07 23:41:49 24° 266° (W) 23:45:30 437.345 MHz
MaSat-1 26 Oct 00:13:45 00:17:51 71° 297° (WNW) 00:21:34 437.345 MHz
UOSAT-12 26 Oct 00:24:22 00:28:45 39° 244° (WSW) 00:33:03 437.025 FM, 437.400 FM
RS-15 26 Oct 01:29:46 01:38:58 30° 331° (NNW) 01:48:17 29.354 - 29.394 USB, Beacon 29.352 USB
Oscar 16 26 Oct 01:31:44 01:34:27 14° 90° (E) 01:37:10 437.025 USB, Beacon 2401.1428
Oscar 10/S400 26 Oct 01:45:10 02:40:49 18° 244° (WSW) 04:40:04 145.825 - 145.975 CW/USB, Beacon 145.810 USB
ITAMSAT 1 26 Oct 02:02:05 02:02:19 10° 88° (E) 02:02:32 435.822 SSB
JAS-1B 26 Oct 02:11:25 02:17:43 38° 98° (E) 02:25:05 435.800 - 435.900 CW/SSB
Oscar 19 26 Oct 02:23:18 02:28:11 44° 99° (E) 02:33:03 437.125 CW, 437.150 USB
AO-27 26 Oct 02:44:21 02:48:52 29° 96° (E) 02:53:21 436.795 MHz FM
AO-Echo 26 Oct 02:54:29 02:59:39 48° 99° (E) 03:04:45 ?
Oscar 16 26 Oct 03:09:11 03:14:17 68° 287° (WNW) 03:19:21 437.025 USB, Beacon 2401.1428
Sapphire 26 Oct 03:13:23 03:17:38 24° 107° (ESE) 03:21:56 437.095 MHz 1200 baud AX-25 AFSK
Uribyol 2 26 Oct 03:30:55 03:36:09 82° 104° (ESE) 03:41:20 436.500 FM
PCSat 26 Oct 03:34:50 03:39:51 41° 112° (ESE) 03:44:54 145.825 MHz
ITAMSAT 1 26 Oct 03:37:15 03:42:31 88° 104° (ESE) 03:47:44 435.822 SSB
RS-15 26 Oct 03:48:28 03:56:21 21° 7° (N) 04:04:22 29.354 - 29.394 USB, Beacon 29.352 USB
OPAL 26 Oct 03:56:49 03:59:13 13° 57° (ENE) 04:01:36 ?
JAS-1B 26 Oct 04:02:07 04:08:20 43° 292° (WNW) 04:15:38 435.800 - 435.900 CW/SSB
Oscar 19 26 Oct 04:03:16 04:07:15 23° 296° (WNW) 04:11:12 437.125 CW, 437.150 USB
Gurwin Techsat 1B 26 Oct 04:04:25 04:09:47 84° 104° (ESE) 04:15:06 435.225 FM
TMSAT-1 26 Oct 04:14:50 04:20:10 79° 103° (ESE) 04:25:28 436.925 FM
AO-7 26 Oct 04:19:31 04:25:59 24° 93° (E) 04:32:24 29.400 - 29.500 MHz
AO-27 26 Oct 04:23:39 04:28:23 36° 292° (WNW) 04:33:06 436.795 MHz FM
AO-Echo 26 Oct 04:33:57 04:38:04 23° 296° (WNW) 04:42:10 ?
Uosat F 26 Oct 04:41:28 04:45:08 20° 93° (E) 04:48:46 435.120 FM
Sapphire 26 Oct 04:55:31 05:00:44 49° 305° (NW) 05:06:00 437.095 MHz 1200 baud AX-25 AFSK
Uribyol 2 26 Oct 05:12:22 05:14:55 14° 301° (WNW) 05:17:27 436.500 FM
PCSat 26 Oct 05:18:34 05:23:21 31° 310° (NW) 05:28:10 145.825 MHz
ITAMSAT 1 26 Oct 05:18:58 05:21:15 13° 302° (WNW) 05:23:32 435.822 SSB
OPAL 26 Oct 05:32:15 05:37:24 85° 254° (WSW) 05:42:31 ?
STRAND 1 26 Oct 05:43:00 05:45:37 14° 59° (ENE) 05:48:14 ?
Gurwin Techsat 1B 26 Oct 05:46:25 05:49:00 14° 301° (WNW) 05:51:36 435.225 FM
TMSAT-1 26 Oct 05:56:33 05:59:24 15° 300° (WNW) 06:02:15 436.925 FM
JAS-2 26 Oct 06:00:14 06:07:31 41° 95° (E) 06:14:43 435.800 - 435.900 CW/SSB, 435.910 FM
RS-15 26 Oct 06:02:29 06:12:51 42° 40° (NE) 06:23:34 29.354 - 29.394 USB, Beacon 29.352 USB
AO-7 26 Oct 06:11:08 06:19:26 74° 292° (WNW) 06:27:43 29.400 - 29.500 MHz
Uosat F 26 Oct 06:19:18 06:24:10 48° 289° (WNW) 06:29:00 435.120 FM
Hamsat 26 Oct 06:36:25 06:40:22 40° 98° (E) 06:44:21 145.90 MHz
Sapphire 26 Oct 06:44:39 06:45:32 10° 327° (NNW) 06:46:26 437.095 MHz 1200 baud AX-25 AFSK
STRAND 1 26 Oct 07:19:00 07:24:07 79° 257° (WSW) 07:29:18 ?
Saudisat 1A 26 Oct 07:24:40 07:28:50 45° 117° (ESE) 07:33:03 436.775 MHz
JAS-2 26 Oct 07:45:11 07:52:30 46° 293° (WNW) 07:59:49 435.800 - 435.900 CW/SSB, 435.910 FM
AO-7 26 Oct 08:05:50 08:10:50 18° 312° (NW) 08:15:51 29.400 - 29.500 MHz
Hamsat 26 Oct 08:13:11 08:16:02 18° 294° (WNW) 08:18:53 145.90 MHz
RS-15 26 Oct 08:14:54 08:25:56 68° 244° (WSW) 08:37:27 29.354 - 29.394 USB, Beacon 29.352 USB
SO-67 26 Oct 08:25:31 08:28:59 78° 283° (WNW) 08:32:24 435.3500 MHz FM
MaSat-1 26 Oct 08:25:42 08:26:19 11° 51° (NE) 08:26:56 437.345 MHz
PANSAT 26 Oct 09:01:37 09:02:52 11° 181° (S) 09:04:07 not established
Saudisat 1A 26 Oct 09:05:07 09:08:36 23° 316° (NW) 09:12:08 436.775 MHz
HO-68 26 Oct 09:12:44 09:18:37 26° 94° (E) 09:24:26 435.675 MHz FM
UKube-1 26 Oct 09:53:33 09:56:13 16° 92° (E) 09:58:52 145.840 MHz, 145.915 MHz
MaSat-1 26 Oct 09:59:56 10:01:58 21° 252° (WSW) 10:03:53 437.345 MHz
RS-15 26 Oct 10:31:15 10:36:07 14° 264° (W) 10:41:05 29.354 - 29.394 USB, Beacon 29.352 USB
Oscar 11 26 Oct 10:32:33 10:36:37 40° 98° (E) 10:40:39 145.825 FM, Beacon 2401.500 USB
FUNcube-1 26 Oct 10:35:24 10:38:15 17° 92° (E) 10:41:02 145.950 - 145.970 MHz USB
HO-68 26 Oct 10:59:39 11:06:42 60° 292° (WNW) 11:13:43 435.675 MHz FM
